TimePDT,TemperatureF,Dew PointF,Humidity,Sea Level PressureIn,VisibilityMPH,Wind Direction,Wind SpeedMPH,Gust SpeedMPH,PrecipitationIn,Events,Conditions,WindDirDegrees,DateUTC
12:53 AM,55.0,50.0,83,29.86,3.0,Calm,Calm,-,N/A,,Haze,0,2013-06-04 07:53:00
1:53 AM,55.0,50.0,83,29.86,3.0,SSE,4.6,-,N/A,,Haze,160,2013-06-04 08:53:00
2:53 AM,55.0,50.0,83,29.85,3.0,SSE,3.5,-,N/A,,Haze,160,2013-06-04 09:53:00
3:53 AM,54.0,50.0,86,29.85,3.0,South,4.6,-,N/A,,Overcast,190,2013-06-04 10:53:00
4:53 AM,54.0,50.0,86,29.85,3.0,South,3.5,-,N/A,,Overcast,190,2013-06-04 11:53:00
5:53 AM,54.0,48.9,83,29.86,3.0,SSW,3.5,-,N/A,,Haze,200,2013-06-04 12:53:00
6:28 AM,53.6,48.2,82,29.89,2.0,SSW,4.6,-,N/A,,Haze,210,2013-06-04 13:28:00
6:53 AM,54.0,50.0,86,29.88,4.0,South,5.8,-,N/A,,Overcast,180,2013-06-04 13:53:00
7:53 AM,54.0,50.0,86,29.90,3.0,SW,4.6,-,N/A,,Overcast,230,2013-06-04 14:53:00
8:53 AM,55.0,50.0,83,29.92,4.0,South,4.6,-,N/A,,Overcast,180,2013-06-04 15:53:00
9:53 AM,55.9,50.0,80,29.93,10.0,SW,4.6,-,N/A,,Overcast,220,2013-06-04 16:53:00
10:00 AM,55.4,50.0,82,29.95,10.0,Calm,Calm,-,N/A,,Overcast,0,2013-06-04 17:00:00
10:04 AM,55.4,50.0,82,29.95,10.0,SSW,4.6,-,N/A,,Overcast,210,2013-06-04 17:04:00
10:53 AM,57.9,50.0,75,29.94,7.0,Variable,5.8,-,N/A,,Overcast,0,2013-06-04 17:53:00
11:53 AM,61.0,50.0,67,29.94,7.0,SSW,8.1,-,N/A,,Mostly Cloudy,210,2013-06-04 18:53:00
12:53 PM,63.0,51.1,65,29.94,10.0,South,12.7,19.6,N/A,,Mostly Cloudy,170,2013-06-04 19:53:00
1:53 PM,63.0,51.1,65,29.94,10.0,South,12.7,-,N/A,,Scattered Clouds,180,2013-06-04 20:53:00
2:53 PM,64.9,51.1,61,29.94,10.0,South,9.2,20.7,N/A,,Scattered Clouds,190,2013-06-04 21:53:00
3:00 PM,64.4,51.8,64,29.95,10.0,South,9.2,20.7,N/A,,Scattered Clouds,170,2013-06-04 22:00:00
3:07 PM,64.4,51.8,64,29.95,10.0,South,12.7,18.4,N/A,,Scattered Clouds,180,2013-06-04 22:07:00
3:53 PM,64.9,51.1,61,29.92,10.0,SSW,10.4,18.4,N/A,,Scattered Clouds,200,2013-06-04 22:53:00
4:53 PM,64.9,51.1,61,29.91,10.0,SSW,10.4,-,N/A,,Scattered Clouds,200,2013-06-04 23:53:00
5:53 PM,63.0,51.1,65,29.91,10.0,SSW,11.5,16.1,N/A,,Scattered Clouds,200,2013-06-05 00:53:00
6:53 PM,61.0,50.0,67,29.91,10.0,South,10.4,-,N/A,,Scattered Clouds,180,2013-06-05 01:53:00
7:53 PM,57.9,50.0,75,29.91,10.0,South,9.2,-,N/A,,Scattered Clouds,190,2013-06-05 02:53:00
8:00 PM,57.2,50.0,77,29.93,2.5,South,8.1,-,N/A,,Clear,190,2013-06-05 03:00:00
8:53 PM,55.0,50.0,83,29.93,3.0,South,8.1,-,N/A,,Clear,190,2013-06-05 03:53:00
9:12 PM,53.6,50.0,88,29.95,3.0,South,5.8,-,N/A,,Mostly Cloudy,190,2013-06-05 04:12:00
9:53 PM,55.0,50.0,83,29.94,3.0,South,5.8,-,N/A,,Overcast,180,2013-06-05 04:53:00
10:53 PM,55.0,50.0,83,29.95,3.0,South,5.8,-,N/A,,Overcast,190,2013-06-05 05:53:00
11:53 PM,54.0,50.0,86,29.96,3.0,SSW,3.5,-,N/A,,Overcast,210,2013-06-05 06:53:00